Torna al catalogo

NADEZHDA 2

AttivoComunicazioniPO
NORAD 20508·PAYLOAD·🇷🇺 Russia

Lanciato Feb 27, 1990 da Plesetsk Cosmodrome

Loading…

Prossimi Passaggi (prossime 24 ore)

TLE

AggiornatoSource: Space-Track

Epoca: Sep 14, 2026, 06:55 UTC

1 20508U 90017A   26257.28886862  .00000042  00000-0  27671-4 0  9995
2 20508  82.9600   8.1563 0043873 189.4811 199.6072 13.74563868832628

Traccia NADEZHDA 2 in tempo reale con AllMySat

Download on the App Store